Wind_Speed
16 16 16 16 18 20 20 19 19 19 19 18 19 23 26 26 24 21 18 16 14 12 11 10 9 8 8 8 8 8 7 6 6 6 6 6 7 9 10 10 10 10 10 11 11 11 11 11 11 11 12 12 13 13 13 14 14 14 15 16 17 18 18 19 20 20 21 23 24 24 25 26 25 24 24 24 25 25 25 25 25 26 26 27 27
16 16 16 17 20 21 19 18 18 18 19 19 21 25 26 26 24 20 18 17 15 12 11 10 9 9 9 8 9 9 8 7 7 6 7 7 8 9 10 10 10 10 10 10 11 11 11 11 11 12 12 12 13 13 13 14 14 14 15 16 17 18 18 19 20 21 22 23 24 24 25 25 24 23 23 24 25 25 25 26 26 27 27 28 28
17 17 18 19 21 20 19 19 18 18 19 21 23 26 26 26 24 20 19 17 15 13 12 10 9 9 9 9 10 10 8 8 7 7 7 8 8 9 10 10 10 10 10 10 10 10 11 11 12 12 12 12 12 12 13 13 13 14 15 15 16 17 18 18 19 20 22 22 23 24 24 23 23 23 23 25 26 25 26 27 28 29 29 29 29
17 18 20 21 21 20 19 19 19 19 19 21 24 26 26 25 23 21 20 18 16 14 13 11 10 10 10 10 10 10 9 8 8 8 8 8 9 10 10 11 11 10 10 10 10 10 11 11 12 12 12 12 12 12 12 13 13 13 14 15 16 17 17 18 19 20 21 21 22 23 23 23 23 23 24 26 26 26 27 28 29 30 30 30 30
17 19 20 20 21 20 20 20 20 19 19 21 24 25 25 25 23 22 21 19 17 15 14 13 12 11 11 11 11 11 10 10 9 9 9 9 9 10 10 11 11 10 10 10 10 10 11 11 12 12 12 11 11 11 12 12 12 13 13 14 15 16 16 17 18 19 20 20 21 21 22 22 22 22 24 25 26 26 27 28 29 29 29 29 30
17 19 18 19 21 22 22 21 20 19 19 21 24 25 25 24 23 23 22 20 18 16 15 14 13 13 12 12 12 12 11 11 10 10 10 9 9 10 10 11 11 10 10 9 10 10 11 11 11 11 11 11 11 11 12 12 12 12 12 13 14 15 15 16 17 18 19 20 20 20 21 21 21 22 23 24 25 26 27 28 28 28 28 29 29
17 18 17 18 22 24 24 21 19 19 20 22 24 25 25 24 23 24 24 21 18 16 15 15 15 14 14 13 13 13 13 12 11 10 10 9 9 10 11 11 11 10 10 10 10 10 10 11 11 11 11 11 11 11 11 11 11 11 12 13 13 14 14 15 16 17 18 19 19 19 20 20 21 22 23 24 25 25 26 26 27 28 28 29 29
16 17 17 18 21 22 20 18 18 18 19 21 23 25 26 25 24 25 24 22 19 17 16 16 16 16 15 15 14 14 14 13 11 11 10 10 10 11 11 11 11 10 10 10 10 10 10 11 11 11 11 11 11 11 11 11 11 11 11 12 12 13 13 14 15 16 17 17 17 18 18 19 20 21 22 23 23 24 25 26 27 28 28 29 28
16 17 17 18 19 19 17 17 17 17 19 21 23 25 26 26 26 26 25 22 20 18 17 17 17 17 17 16 16 15 14 13 12 11 10 10 10 11 11 11 11 10 10 10 10 10 10 11 11 11 11 10 10 10 10 10 10 10 10 11 12 12 13 14 14 15 15 15 15 16 16 17 18 19 20 21 22 23 24 26 27 27 28 28 28
16 18 18 18 18 19 19 18 17 18 19 20 22 25 26 27 26 26 25 23 21 20 19 19 19 19 18 17 16 16 15 13 12 11 11 10 11 11 11 11 11 10 10 10 10 9 10 10 11 11 11 10 10 10 10 10 10 9 10 10 10 11 12 12 13 14 14 14 14 14 15 16 16 18 19 20 21 22 23 24 25 26 26 26 26
17 18 19 18 19 19 20 20 20 20 20 20 22 25 26 26 26 26 25 23 22 21 20 20 20 20 19 18 17 17 15 14 13 12 11 11 11 11 11 11 10 10 10 10 10 9 9 10 11 10 10 10 9 10 10 9 9 8 9 9 9 10 11 11 12 13 13 14 14 14 14 15 17 18 19 20 20 21 22 24 25 25 25 25 26
17 19 20 20 20 20 21 22 22 21 21 21 23 24 25 26 26 26 26 24 23 22 21 21 21 21 20 19 18 17 16 14 14 13 12 12 12 12 11 11 11 10 10 9 9 9 9 9 10 10 10 9 9 9 9 9 9 8 8 8 9 9 10 10 11 12 12 13 13 13 14 15 17 18 19 19 20 21 22 23 23 23 25 26 26
18 20 21 22 22 22 22 23 21 21 21 21 23 24 25 27 27 27 27 25 24 23 22 22 22 21 20 20 19 18 17 15 15 14 13 13 12 12 12 11 11 10 10 9 9 9 9 9 10 10 10 9 9 9 9 9 8 7 7 7 8 8 9 9 10 11 11 12 12 12 13 15 16 17 18 19 21 21 21 22 22 22 23 24 25
19 21 22 23 24 24 23 22 20 20 21 22 23 24 26 27 28 28 27 25 23 22 22 22 22 22 21 21 20 19 18 17 16 15 14 13 13 12 12 12 11 11 10 10 10 9 9 9 9 10 10 9 9 8 9 9 8 7 6 6 7 7 8 8 9 10 10 11 11 11 12 14 16 17 18 19 20 20 20 20 20 20 22 24 24
22 21 22 24 25 25 24 22 21 20 22 23 24 25 26 27 27 27 26 25 24 23 23 23 23 23 23 22 22 20 19 17 16 15 14 14 13 13 12 12 12 11 11 10 10 9 9 9 9 9 10 9 9 8 8 8 8 7 6 6 6 6 7 7 8 9 10 10 10 10 11 13 15 16 17 18 19 19 19 20 20 20 23 24 24
23 23 24 26 26 25 24 23 22 21 22 24 26 26 27 27 27 26 26 25 24 24 24 24 24 24 24 23 23 21 19 18 17 16 15 14 14 13 13 13 12 12 12 11 10 10 9 9 9 9 10 9 9 8 8 8 8 7 6 5 5 6 6 6 7 8 8 9 9 9 11 12 14 16 16 17 18 18 19 19 19 20 22 22 21
23 23 24 26 26 25 25 25 23 21 22 25 27 28 28 27 26 26 26 26 25 25 25 25 25 25 24 24 23 22 20 19 18 17 16 15 14 14 14 14 13 13 13 12 11 10 9 9 9 9 9 9 9 9 8 8 8 7 6 5 5 5 5 5 6 7 7 7 7 8 10 11 13 14 15 16 16 17 17 18 18 18 18 19 19
21 20 23 26 27 26 26 26 24 21 22 26 28 29 28 27 27 27 28 27 27 26 26 26 26 26 25 25 24 22 21 20 19 18 16 15 15 14 14 15 14 14 13 13 12 11 9 9 9 9 9 9 9 9 9 9 8 7 6 5 5 4 4 4 4 5 6 6 6 7 8 10 11 12 13 14 14 14 15 15 16 16 17 18 19
20 18 20 24 25 24 27 27 25 23 24 27 28 27 26 27 28 29 29 28 28 28 28 28 27 27 26 26 24 23 22 21 20 19 17 16 15 15 15 16 15 15 14 13 13 12 10 10 10 10 10 9 8 9 9 9 9 8 6 6 5 4 3 3 3 4 4 5 5 6 7 8 10 11 12 13 13 13 14 14 15 16 16 17 18
19 16 18 21 21 22 25 27 28 26 25 26 26 26 26 27 29 30 29 29 29 29 29 29 28 27 27 26 24 23 22 22 21 19 17 16 15 15 16 17 16 16 15 14 14 12 11 10 10 10 10 9 8 9 9 10 10 8 7 6 5 4 4 3 3 3 3 4 5 5 6 7 8 9 10 11 12 13 14 14 15 15 16 17 17
18 16 18 20 20 21 24 27 29 28 25 24 25 25 25 27 28 28 29 29 29 29 29 29 28 27 26 25 24 24 23 23 22 20 18 16 16 16 17 18 17 17 16 15 14 13 12 11 11 11 10 9 9 9 10 10 10 9 8 7 6 5 4 4 3 3 4 5 5 5 5 6 7 9 10 10 11 12 13 13 14 15 16 16 17
18 20 21 21 21 23 23 26 29 28 26 25 25 25 25 26 26 26 26 27 27 27 27 28 28 27 27 26 25 25 25 25 23 20 18 17 17 17 18 19 19 18 17 17 15 14 13 12 12 11 10 10 9 9 10 11 11 10 9 8 7 6 5 5 4 4 4 5 5 5 5 6 7 8 9 10 11 11 12 13 14 15 15 16 16
16 19 22 23 23 23 23 25 29 30 29 27 26 25 25 25 25 24 24 24 25 25 26 28 30 30 29 28 27 27 27 26 23 20 19 18 17 18 19 20 20 19 19 18 17 15 14 13 12 11 11 10 10 10 11 11 12 11 10 9 8 7 7 6 5 5 5 5 5 5 5 6 7 8 9 9 10 11 12 13 13 14 15 15 16
15 16 20 23 23 22 22 26 29 31 31 30 28 26 26 25 24 23 22 22 22 22 22 26 32 35 34 32 31 30 29 27 23 20 19 19 18 19 20 21 21 21 20 19 18 16 15 14 13 12 11 11 11 11 11 12 12 12 11 10 9 9 8 7 7 7 7 6 6 6 6 6 7 8 9 10 10 11 12 12 13 14 14 14 15
15 16 18 21 22 22 22 25 28 28 28 28 26 26 26 26 23 21 20 21 21 21 20 21 27 33 36 35 34 33 32 29 24 20 20 20 20 20 22 22 22 22 21 20 18 17 16 15 13 12 11 11 11 12 12 13 13 12 11 11 10 10 10 9 9 8 8 8 7 6 6 7 7 7 8 9 11 11 12 13 14 14 15 14 14
13 15 16 18 20 21 22 25 28 26 23 21 20 20 22 22 21 20 21 23 24 24 24 24 26 31 35 37 36 35 34 30 24 21 21 21 21 22 23 23 23 23 22 21 19 18 17 15 14 12 11 11 12 12 13 13 13 13 12 12 12 12 12 11 10 10 9 9 8 7 7 7 7 8 8 9 10 12 12 14 15 15 16 17 16
13 14 15 16 17 18 21 24 24 22 21 20 18 16 17 19 20 21 23 24 24 24 24 24 26 29 34 35 35 35 33 28 23 21 22 22 22 23 24 24 24 24 23 21 20 19 18 16 14 13 12 11 12 13 14 14 14 14 14 13 13 13 13 13 12 11 11 11 10 9 8 8 8 9 9 10 10 11 12 13 14 15 16 17 18
14 14 14 15 15 15 18 20 20 19 20 20 19 17 18 19 20 21 22 22 22 22 23 24 26 28 31 32 33 32 29 26 22 21 22 22 23 24 25 25 25 25 24 23 22 20 19 17 15 13 12 12 13 13 14 15 15 15 15 15 14 14 15 15 14 13 13 12 11 10 9 9 10 10 10 11 11 12 12 13 14 15 16 17 18
15 15 14 15 15 14 16 18 19 19 19 18 17 18 19 20 20 21 22 23 23 24 25 27 29 30 31 31 30 28 26 24 22 22 23 24 24 25 26 26 27 27 26 24 23 21 20 18 15 14 14 13 14 14 14 15 16 16 16 16 16 16 16 16 16 15 14 14 13 12 11 11 11 11 12 12 12 13 13 14 15 15 16 17 18
16 15 14 15 17 17 18 19 19 19 18 17 18 20 20 21 22 23 23 23 24 26 28 29 29 29 29 29 29 28 27 26 26 26 27 27 27 28 28 29 29 29 27 25 24 22 21 18 16 15 15 14 14 14 15 15 16 17 18 17 17 17 18 18 18 17 16 16 15 14 13 12 12 13 13 13 14 14 14 15 16 16 17 18 18
16 15 15 16 18 20 21 20 19 20 20 20 20 20 20 20 21 21 21 21 23 26 28 28 27 26 27 29 30 31 30 30 29 30 29 29 29 29 30 31 31 29 27 25 24 23 22 19 17 16 16 15 15 15 15 16 17 18 19 19 19 19 19 19 20 19 18 17 16 16 15 14 14 14 14 15 15 15 16 16 17 18 18 19 20
16 16 15 16 18 21 22 21 20 21 21 20 20 20 20 19 19 18 18 19 22 24 24 23 23 24 26 29 30 29 29 30 30 29 29 28 29 30 30 31 31 29 27 26 25 24 23 21 18 17 17 16 16 16 16 17 18 19 20 20 20 20 20 21 21 21 20 18 18 17 17 16 16 16 16 16 17 17 18 18 19 19 20 21 21
18 18 17 16 18 19 20 20 20 20 19 19 19 19 19 18 17 16 16 17 19 20 19 18 18 20 24 27 27 27 28 30 30 28 27 28 29 30 31 32 32 30 28 27 27 25 23 22 20 19 18 18 17 17 17 18 19 20 21 21 22 22 22 22 22 22 21 20 19 19 18 18 18 18 18 19 19 19 20 20 21 21 22 23 23
18 18 17 17 17 17 18 19 20 19 19 19 19 19 18 18 17 16 16 16 17 17 16 16 16 17 21 24 26 27 28 29 29 28 27 28 29 30 32 32 32 30 28 28 27 26 25 23 21 20 20 19 19 19 19 19 20 21 22 22 23 23 23 23 23 23 23 22 21 21 21 21 21 20 20 21 21 21 22 22 23 23 24 24 25
15 17 18 19 19 19 20 20 18 17 17 17 18 18 17 16 14 14 14 14 14 15 16 16 17 18 20 23 26 28 29 30 29 28 28 28 29 30 32 32 31 29 28 28 28 27 25 24 22 21 21 21 21 21 20 20 21 22 23 23 24 24 24 24 24 24 24 24 23 23 23 23 23 22 22 23 23 23 24 24 25 25 26 26 27
13 16 18 19 19 19 19 18 16 15 14 14 15 16 15 14 13 14 14 13 13 15 16 16 15 16 19 22 25 28 29 31 31 30 29 28 29 29 30 31 30 28 28 29 28 28 26 25 24 23 23 23 23 23 22 22 22 23 24 24 25 25 25 25 25 26 25 25 25 25 25 24 24 24 24 24 25 25 26 26 27 27 28 28 29
13 14 14 15 15 15 15 14 14 15 14 14 15 15 15 16 16 16 14 12 12 15 16 15 15 16 18 20 24 28 31 32 32 31 30 29 29 29 30 30 29 29 29 30 29 28 27 26 25 25 25 25 25 24 24 23 23 24 25 25 26 26 26 26 26 27 27 27 27 27 26 26 26 26 26 26 26 27 27 28 28 29 29 30 30
13 13 12 13 13 13 13 13 14 15 15 16 16 17 17 17 17 16 15 13 14 16 18 18 17 17 19 20 23 28 32 34 33 32 31 29 29 28 28 28 28 28 29 30 30 29 28 27 26 26 26 26 27 26 25 25 25 25 26 27 27 28 27 27 27 27 28 28 28 28 28 27 27 27 27 27 27 28 29 29 30 30 31 31 32
13 13 13 13 13 12 12 13 14 15 15 16 16 16 16 15 15 16 16 15 16 17 19 20 20 20 20 21 23 27 31 34 35 33 31 28 26 26 26 26 27 28 29 30 29 29 28 27 27 26 26 26 27 27 27 27 27 27 28 28 28 29 28 28 28 29 29 30 30 29 29 29 29 29 29 29 29 30 30 31 31 32 32 32 33
14 14 14 14 13 13 14 14 14 15 15 16 16 16 15 16 16 16 16 17 18 20 21 23 24 24 22 22 22 25 29 33 34 33 31 28 25 23 24 26 27 28 29 30 31 30 29 28 28 27 26 27 28 28 28 28 28 28 29 29 29 29 29 29 29 30 30 30 30 30 30 30 30 30 30 31 31 31 32 32 33 33 34 34 35
14 14 14 15 15 15 16 16 16 15 16 16 16 15 15 16 16 16 16 17 19 21 23 25 26 27 26 24 24 24 27 31 34 34 33 32 28 25 23 25 28 29 31 33 33 33 32 31 30 30 29 29 29 29 29 29 29 29 30 30 30 30 30 30 30 30 31 31 31 30 30 31 31 32 32 32 32 33 34 34 34 35 36 36 36
17 16 17 17 18 18 18 19 18 18 17 17 17 17 17 18 17 17 16 17 19 21 24 26 27 28 28 27 26 25 27 30 34 36 36 35 33 30 28 28 30 32 33 34 34 34 33 32 32 31 30 29 29 29 29 29 30 30 30 30 30 30 30 30 31 31 31 31 31 30 31 31 32 33 33 33 34 35 35 36 36 36 37 38 38
20 20 20 20 20 21 22 22 22 22 21 21 21 21 21 21 19 18 18 18 19 21 23 25 26 27 28 28 27 27 27 29 33 37 37 36 35 35 34 34 34 35 35 35 35 35 34 34 33 31 29 28 28 28 29 29 30 31 31 31 31 30 30 30 31 31 31 31 31 31 32 32 33 34 35 35 36 36 37 37 38 38 38 39 39
21 22 22 22 22 23 23 24 24 24 23 23 24 24 22 21 21 20 20 21 22 23 25 26 27 28 29 28 27 26 27 28 31 35 36 34 33 33 34 34 35 36 37 38 38 37 36 35 33 31 28 27 27 27 28 29 30 30 31 31 30 30 29 30 31 31 31 32 32 32 33 34 34 35 36 37 37 38 38 38 38 39 39 39 39
22 22 22 22 22 23 24 25 25 26 26 27 26 25 23 21 21 21 21 22 22 22 24 27 29 30 30 29 27 26 26 28 30 32 33 33 31 30 32 33 35 37 39 41 41 39 38 36 34 32 30 28 26 26 26 27 27 28 29 29 29 29 29 30 30 31 31 32 32 33 34 35 36 37 38 38 38 39 39 39 39 39 39 38 38
22 22 22 22 22 22 23 24 24 25 25 25 24 23 22 22 21 20 19 19 19 20 22 24 27 28 29 28 27 26 27 28 30 31 32 33 32 31 32 34 35 37 39 40 39 39 38 37 36 35 34 31 28 25 25 25 26 26 27 28 28 28 29 29 30 30 31 32 33 34 35 36 37 38 38 38 39 39 39 39 39 39 39 38 38
21 21 21 21 21 21 21 21 22 22 22 21 22 23 24 23 22 20 19 19 21 23 24 24 25 27 27 27 27 27 28 29 30 31 32 33 32 32 33 34 35 36 36 36 37 38 39 40 40 39 37 33 28 25 25 25 25 26 26 27 28 28 28 29 29 30 31 32 33 33 34 35 36 37 37 37 38 38 38 38 39 38 38 37 37
20 20 20 20 20 20 21 21 21 23 24 23 23 24 24 23 21 20 20 21 22 23 24 24 25 26 25 25 25 26 27 29 31 32 33 33 33 33 34 34 35 35 35 36 37 38 39 40 39 37 33 29 25 23 23 23 24 25 26 27 27 27 27 28 29 29 30 31 31 32 33 33 34 35 36 36 36 36 36 37 37 37 37 37 37
20 19 19 19 19 20 22 22 23 26 28 29 28 27 25 23 22 21 22 23 24 24 23 23 22 22 21 22 23 25 26 29 31 33 34 34 34 35 36 36 36 35 35 35 35 35 35 34 32 29 25 21 20 19 20 21 22 24 24 25 25 26 27 27 28 28 29 30 31 31 32 33 34 34 34 34 34 35 35 35 36 37 37 38 39
20 18 17 18 18 20 21 23 24 25 27 27 27 25 23 22 23 23 24 24 24 23 22 21 21 21 21 23 24 25 26 29 31 33 34 35 35 35 35 34 33 33 33 34 33 32 29 26 23 19 16 15 16 17 19 20 22 23 24 25 26 26 27 27 28 29 30 31 31 32 32 33 33 33 33 33 34 35 36 37 39 40 41 42 43
19 18 17 18 20 20 21 22 23 23 23 23 23 22 22 22 22 21 21 21 21 22 22 22 23 22 22 23 24 25 26 28 30 31 32 32 33 33 33 33 33 33 31 29 26 22 19 16 14 13 13 14 16 18 19 21 22 23 24 25 26 26 27 28 29 30 30 31 30 30 31 31 32 32 33 35 36 38 39 40 41 42 43 44 45
Wind_Direction
206 215 220 214 208 209 210 208 206 206 209 213 210 200 196 201 207 211 213 216 218 220 223 224 220 220 225 230 242 256 266 275 279 282 293 307 318 326 332 336 340 345 346 344 345 349 352 353 353 353 353 356 359 1 1 359 359 359 1 3 4 4 5 6 9 11 13 15 14 13 13 12 10 10 12 13 13 12 10 9 10 10 8 5 4
211 216 214 207 206 207 206 205 207 211 211 210 204 198 199 205 210 212 215 218 219 222 226 228 225 224 226 231 245 258 267 275 280 282 287 297 310 321 329 332 336 342 341 340 343 348 350 351 351 351 352 356 358 359 359 358 358 359 1 3 4 4 5 8 10 12 14 15 14 14 14 12 10 11 14 14 14 14 13 12 13 13 12 11 9
206 208 206 207 210 208 204 204 209 213 211 207 202 199 201 208 211 213 218 220 221 224 229 231 229 228 228 234 248 261 270 276 279 280 282 289 302 317 326 328 332 336 335 336 341 345 348 349 350 350 351 354 357 358 357 356 357 358 360 2 3 3 6 10 12 14 16 15 13 13 13 11 10 13 15 15 16 17 16 16 16 15 14 14 12
199 200 202 207 209 205 202 207 212 215 211 205 201 201 204 209 211 214 219 221 221 225 230 233 234 233 233 239 251 264 272 276 277 277 279 285 298 313 322 324 327 329 330 332 338 343 346 348 348 348 350 353 355 355 354 354 355 357 359 1 2 3 7 11 14 16 17 15 13 12 11 10 10 13 16 16 17 18 18 18 18 16 15 15 14
200 199 200 204 207 204 205 211 216 217 211 203 201 204 207 209 211 215 220 221 222 225 230 236 238 238 238 244 255 266 273 274 274 274 276 283 296 309 316 319 320 323 325 328 334 341 344 345 345 346 348 351 352 351 351 353 354 355 358 0 1 4 8 12 16 17 16 15 13 11 10 11 11 13 17 17 17 18 19 20 20 18 16 16 16
203 201 200 203 206 207 209 214 218 215 208 203 204 207 209 210 212 216 219 221 221 224 230 236 240 241 243 247 256 266 271 272 272 272 276 283 294 304 311 313 314 317 320 323 330 338 341 341 342 344 348 349 349 349 349 350 351 354 357 359 0 4 9 14 17 17 16 14 12 10 10 11 10 13 18 18 17 19 21 21 21 19 18 18 17
205 204 204 207 211 212 210 210 214 213 209 206 208 210 211 210 213 217 219 221 222 225 231 237 242 243 245 248 256 264 268 271 271 271 276 283 291 300 305 307 309 312 315 319 326 333 336 338 341 344 347 347 347 347 346 348 349 352 356 358 360 5 11 16 19 18 16 14 11 9 10 10 9 12 17 18 17 19 21 22 22 20 19 19 18
208 208 210 212 219 221 215 211 213 214 213 211 212 212 211 212 215 218 220 221 223 227 233 238 242 244 246 249 254 262 267 271 272 272 276 283 289 295 299 302 304 307 310 314 320 328 332 336 341 344 345 345 344 344 344 345 347 351 354 356 359 4 10 17 19 18 15 12 10 9 10 10 9 13 18 19 17 18 20 23 23 23 21 20 19
213 214 216 216 221 225 221 219 219 219 218 216 214 214 213 213 216 219 222 223 226 230 235 240 242 244 247 249 254 261 267 271 272 272 276 281 286 290 293 296 298 301 305 309 314 322 330 335 340 343 343 342 341 341 341 342 344 349 352 354 358 3 10 16 19 17 14 11 9 9 10 11 10 13 19 20 19 20 22 23 23 24 24 22 20
215 218 221 221 222 222 222 223 225 226 226 221 217 215 215 215 218 221 224 226 229 234 237 240 242 244 246 249 254 261 266 270 271 270 273 278 282 284 286 289 293 295 299 303 310 317 326 333 338 340 340 339 338 338 339 340 342 346 348 351 357 2 9 15 17 15 11 8 8 8 10 12 11 15 22 23 23 22 23 24 24 25 25 24 24
216 221 223 223 223 221 220 222 225 228 228 224 220 218 217 218 220 223 226 229 232 236 239 240 241 244 247 249 255 261 266 268 268 268 270 273 276 278 281 283 286 289 292 297 304 311 321 330 334 337 337 336 335 335 337 337 338 341 344 348 355 2 8 13 15 13 8 5 6 7 10 14 15 19 24 26 26 24 22 24 24 23 23 24 25
216 221 223 224 224 221 218 219 223 226 225 223 222 221 220 222 223 225 228 230 233 236 239 240 241 243 247 251 256 261 265 266 265 265 267 270 271 273 276 278 280 282 285 290 297 304 315 325 330 333 333 333 333 334 334 334 333 335 340 346 354 1 6 11 13 12 7 4 4 6 12 17 19 22 24 25 28 26 25 26 24 22 24 25 25
221 222 224 225 225 222 220 221 224 227 225 223 224 223 223 225 225 226 228 230 233 237 239 240 241 244 247 251 256 261 264 264 263 263 264 266 269 270 271 274 275 276 279 283 289 297 308 320 326 329 330 330 330 331 331 329 326 328 335 343 352 359 3 8 11 10 6 3 3 6 14 19 22 25 23 25 29 27 26 28 25 23 28 29 27
229 227 227 228 227 225 224 225 228 229 226 224 225 225 225 226 225 226 227 230 234 237 238 240 242 244 247 250 255 260 261 261 260 260 262 264 266 267 268 269 269 270 273 276 282 291 302 314 322 326 326 326 326 326 327 323 319 321 329 339 349 355 359 5 9 8 4 3 3 8 17 23 26 27 25 26 30 27 26 29 25 23 31 31 29
234 233 232 231 230 228 227 227 228 230 228 225 225 226 226 226 226 227 228 231 234 235 237 239 242 244 246 249 253 257 258 256 256 256 258 261 263 263 264 263 263 264 267 269 275 285 297 309 318 322 320 320 320 320 320 316 311 313 321 332 344 350 355 2 8 7 2 1 4 11 22 27 30 30 27 28 31 27 26 29 25 24 32 32 29
237 235 234 233 232 230 229 230 230 229 229 228 227 227 227 228 228 229 231 233 234 235 237 240 243 245 246 248 252 255 254 253 252 253 254 258 260 260 260 258 257 258 260 265 271 278 290 302 311 315 314 313 313 314 314 310 305 305 313 325 337 343 350 1 5 4 0 359 4 15 26 32 33 33 30 28 29 27 26 29 26 26 32 33 29
239 235 232 232 232 230 230 232 232 231 231 230 229 228 228 230 231 232 234 236 236 238 240 243 246 246 246 248 251 253 252 250 249 250 252 255 257 257 256 253 251 252 255 259 266 272 283 294 302 306 307 307 308 308 308 305 299 298 305 314 327 333 342 356 1 1 358 355 2 17 27 33 35 34 30 28 28 25 24 27 26 24 28 29 28
242 236 231 229 229 229 230 232 233 232 232 233 232 229 228 230 233 234 235 237 237 240 243 244 246 246 246 248 250 251 249 248 247 248 249 252 254 254 254 250 246 247 249 255 261 267 275 286 293 297 299 301 303 303 303 300 293 290 295 302 313 323 332 346 353 355 352 347 356 15 26 32 34 32 28 27 26 22 20 22 21 20 23 25 25
244 241 237 232 231 232 231 229 230 231 232 233 232 229 228 231 234 235 236 238 239 242 244 245 245 245 246 248 250 249 247 246 245 245 246 249 251 251 250 246 242 242 245 251 257 262 269 278 285 290 293 296 297 298 298 294 287 282 285 290 298 305 312 325 336 342 340 334 344 6 22 30 32 29 26 24 20 16 15 16 16 16 18 20 23
238 235 237 237 238 238 233 228 229 232 233 231 231 230 230 231 234 236 238 239 241 244 245 244 244 244 246 248 248 248 246 244 244 244 244 245 248 249 247 243 239 240 243 247 253 257 263 272 279 284 288 290 291 292 292 288 282 277 275 279 284 287 290 297 308 318 318 314 327 351 11 23 27 25 23 19 15 12 11 11 12 12 13 15 19
239 235 238 238 239 239 235 232 233 233 231 230 232 234 232 233 235 237 239 241 243 245 245 244 244 244 246 248 248 247 246 244 243 242 242 243 245 246 244 240 237 238 241 244 248 253 259 267 274 279 283 286 286 286 286 282 277 273 270 270 272 272 268 267 273 281 289 297 313 334 356 12 20 20 18 14 11 9 8 6 7 9 10 12 15
248 245 245 241 238 238 236 232 233 232 230 229 232 233 232 233 236 237 239 242 244 245 245 244 243 244 245 247 249 248 246 244 242 241 241 242 243 243 241 238 237 236 239 242 244 249 255 262 269 274 278 281 281 280 280 278 272 268 267 265 264 262 257 254 258 266 275 284 299 318 340 357 8 11 11 9 7 5 3 2 3 4 4 8 12
253 254 254 251 247 244 236 230 231 233 231 229 230 229 227 230 235 237 240 243 245 247 248 245 243 243 245 249 253 253 249 244 239 239 241 242 242 241 238 236 235 235 237 240 242 245 251 258 264 270 274 276 277 276 276 274 269 265 262 261 259 255 252 249 250 255 262 272 286 306 327 342 354 358 359 359 0 360 359 359 360 0 1 4 7
248 253 255 256 255 249 238 230 230 232 230 227 231 233 228 226 229 234 239 245 252 256 255 248 244 242 242 244 249 253 252 245 237 237 243 243 241 239 235 233 235 236 237 239 240 242 248 254 259 265 270 272 274 274 273 271 267 262 259 257 256 253 248 244 245 249 255 263 277 295 312 325 338 344 346 349 351 352 352 353 355 357 358 1 4
239 238 243 250 251 247 239 229 226 227 224 224 230 236 231 224 223 230 238 246 255 261 261 257 253 247 240 238 241 246 249 244 236 236 242 243 241 238 234 233 234 236 237 239 240 242 246 250 255 261 266 270 271 271 272 269 265 260 256 253 252 250 246 242 242 247 253 260 272 285 298 310 321 328 333 339 341 342 345 348 350 352 354 356 359
234 231 235 240 241 240 235 227 225 225 223 224 228 230 226 223 225 233 241 248 255 261 263 263 259 249 241 237 237 241 244 240 233 235 241 241 239 236 233 233 234 236 239 240 240 241 243 247 252 257 261 267 270 271 271 269 264 259 253 250 249 248 245 241 242 246 252 258 266 275 285 296 305 313 321 327 331 335 341 345 347 349 351 352 352
230 232 233 234 235 234 228 223 223 221 217 220 226 227 227 232 238 242 245 249 254 259 263 263 259 253 248 241 236 237 238 234 231 236 240 237 235 233 231 231 233 235 238 239 239 240 242 245 250 255 259 263 267 268 268 267 264 258 252 248 247 247 245 242 241 244 250 256 262 268 276 286 293 301 310 316 322 329 336 340 343 345 347 349 349
226 230 229 224 224 221 213 210 215 219 221 226 231 235 237 241 245 248 249 251 251 252 255 256 255 255 252 244 235 232 233 231 229 234 236 234 232 230 227 229 232 234 236 238 239 239 240 242 247 253 257 261 263 265 266 266 263 259 253 248 246 245 244 242 240 243 248 253 258 262 268 278 287 294 302 309 316 324 330 334 337 340 342 343 344
225 227 226 221 217 208 198 200 211 222 229 231 232 235 239 242 248 251 252 252 252 251 251 250 249 250 247 239 231 229 230 229 226 227 228 227 226 223 223 226 231 234 236 238 239 240 240 240 244 250 256 261 263 264 265 265 263 259 254 249 245 243 242 241 240 242 246 250 255 260 265 273 282 289 296 304 310 316 322 326 330 333 335 337 338
231 229 224 221 216 205 198 203 213 221 227 229 232 238 245 250 256 258 256 255 254 254 254 253 252 251 244 234 228 226 225 221 219 220 221 221 221 220 222 227 232 234 236 237 239 241 241 241 244 250 256 261 262 262 262 262 260 258 254 249 245 243 242 241 240 241 245 249 255 259 264 269 277 284 290 297 303 308 314 318 322 324 327 329 331
232 230 225 219 213 208 206 209 215 221 228 234 240 246 254 261 263 260 256 255 255 256 257 258 258 252 241 231 227 226 223 219 219 221 222 222 221 221 225 231 233 235 236 238 239 241 241 241 244 249 255 259 261 260 260 259 258 256 253 249 245 243 242 242 242 242 245 249 253 258 262 268 273 279 284 290 296 301 306 310 314 317 320 323 325
226 225 220 211 207 208 210 212 217 224 232 240 246 252 259 265 265 259 255 255 257 259 261 263 260 251 239 231 229 230 229 228 228 227 226 226 226 227 230 233 233 233 234 236 236 238 240 242 245 248 252 257 259 259 259 258 257 255 252 249 246 243 242 243 243 244 246 249 253 257 262 266 271 275 280 285 290 295 300 304 308 311 314 317 319
222 224 221 214 212 212 211 213 219 227 234 242 250 256 262 267 267 266 266 265 263 263 262 260 256 248 237 231 231 232 234 235 236 234 232 230 231 233 235 235 234 233 233 234 235 237 239 241 243 246 249 253 256 257 257 256 255 254 252 249 247 244 243 244 246 247 249 251 254 258 261 264 268 272 277 282 286 291 295 299 302 306 309 311 314
215 220 221 221 223 224 221 223 229 235 241 248 254 259 264 268 270 273 276 276 274 271 263 254 248 243 237 234 234 234 234 236 238 238 238 236 235 235 237 237 236 235 235 235 237 238 239 239 242 245 249 252 254 256 255 254 254 253 252 250 248 246 246 246 247 249 251 253 255 258 261 264 267 271 275 280 284 288 291 295 298 301 305 307 309
218 217 218 218 223 228 231 234 239 243 248 253 257 258 261 264 267 273 279 282 280 276 269 260 252 246 242 240 237 234 231 232 235 237 239 240 240 239 239 239 239 238 237 237 239 239 240 241 242 245 249 251 253 255 255 254 254 254 252 251 250 248 247 248 248 250 253 255 257 259 262 265 268 271 274 278 282 285 289 291 294 298 301 304 306
243 234 229 227 228 233 235 234 235 241 248 254 255 256 259 262 268 273 276 276 273 271 273 271 263 256 251 247 244 239 233 231 232 234 236 239 241 242 243 242 241 239 237 237 239 239 239 240 242 245 248 250 251 253 254 254 254 254 252 252 251 250 249 249 250 252 254 256 258 260 262 265 268 271 274 278 281 284 287 289 293 296 298 301 303
258 252 244 237 236 239 238 232 230 235 242 246 249 254 261 268 273 276 276 272 267 268 274 278 275 268 261 254 248 243 237 234 233 234 235 237 238 240 242 242 240 238 236 237 239 240 240 241 243 244 246 248 249 250 251 252 253 254 253 252 251 251 250 251 251 253 256 258 260 262 264 266 268 271 274 277 280 284 287 289 291 294 296 298 300
258 255 251 245 243 243 242 238 237 240 243 246 251 258 264 268 271 274 275 270 261 260 267 276 279 276 271 263 254 245 238 235 234 233 234 236 237 239 241 242 241 240 239 240 241 242 241 242 244 245 246 247 248 249 250 251 253 254 254 253 252 252 252 252 254 256 257 259 261 263 265 267 269 271 274 277 280 283 286 288 290 292 294 296 298
257 254 251 249 249 250 249 248 248 249 250 252 256 259 262 264 267 269 270 267 261 259 263 270 275 276 273 268 262 252 242 238 237 235 234 233 235 239 242 243 243 243 243 244 244 243 242 243 245 246 248 249 250 250 250 250 251 251 252 253 253 253 253 253 255 257 258 260 262 264 266 269 271 273 276 278 281 283 285 287 289 291 293 294 296
258 256 254 252 253 258 261 261 259 257 256 257 258 259 262 264 264 263 262 261 261 262 264 268 274 278 277 273 267 258 247 241 240 241 240 234 230 233 239 241 242 243 243 242 241 238 238 239 241 243 245 248 250 250 250 251 251 252 253 254 255 255 255 255 256 258 260 261 263 266 268 271 273 275 277 280 281 283 285 287 288 290 291 292 293
260 260 260 261 264 266 267 266 267 267 266 263 261 263 266 265 261 257 255 254 256 258 260 265 272 278 280 279 275 267 255 245 241 242 242 236 228 225 230 237 240 239 238 238 237 236 235 238 240 243 245 247 249 250 251 252 253 254 255 256 256 257 258 260 260 261 263 264 266 268 271 273 276 277 279 281 283 284 286 287 288 289 291 292 293
258 256 254 257 261 264 263 261 262 264 265 263 264 268 269 265 262 260 258 254 252 253 256 261 268 274 277 278 278 276 266 254 246 244 244 241 234 227 224 228 233 236 237 238 239 239 239 241 244 247 248 248 249 251 252 254 256 257 258 259 259 260 261 262 263 265 267 268 271 273 275 276 278 280 282 284 285 286 286 288 289 290 291 292 293
258 258 258 257 258 261 262 260 258 258 258 257 261 267 267 261 259 261 263 263 261 259 258 261 266 271 274 275 278 279 275 264 254 249 249 248 245 238 232 230 231 234 236 238 240 240 241 242 245 248 249 250 252 253 255 258 259 260 261 261 261 262 264 266 268 270 272 274 276 278 279 280 282 284 285 285 285 286 287 288 290 291 292 293 294
254 256 257 257 255 257 259 258 257 256 255 255 260 265 263 257 254 255 257 260 262 262 261 261 263 266 269 272 276 278 277 270 261 255 253 253 252 248 244 241 239 239 240 241 241 241 241 242 244 246 247 250 252 255 257 258 260 261 262 264 265 267 269 271 273 274 276 278 280 282 283 284 285 285 286 286 286 287 288 289 290 291 292 293 294
253 252 253 253 253 254 255 255 255 254 254 257 262 264 259 254 252 252 252 253 256 260 263 263 263 264 267 271 275 277 276 271 265 259 255 253 251 249 247 245 243 243 243 244 245 246 247 247 247 246 246 247 249 252 254 257 259 262 266 268 270 271 272 273 274 276 278 281 283 284 285 286 286 287 287 287 287 288 288 289 291 291 292 293 293
252 251 251 252 253 255 255 256 256 255 255 258 261 261 257 253 251 251 252 255 259 262 264 264 264 264 267 270 275 277 276 273 269 264 258 254 251 248 246 245 246 247 249 249 250 251 252 253 254 253 251 248 248 250 255 259 262 265 268 269 271 272 273 274 275 277 279 280 282 284 285 286 287 287 287 287 287 288 290 291 292 292 293 294 294
251 251 251 252 254 254 254 253 253 255 258 258 256 256 257 257 253 249 251 258 264 265 264 263 263 265 267 271 276 278 278 276 271 266 260 255 252 249 248 248 249 251 252 252 253 255 257 259 260 258 253 248 248 253 259 263 264 266 268 270 271 273 274 276 277 278 279 281 282 283 285 286 286 286 286 287 287 288 289 290 291 292 293 293 293
254 253 252 252 254 253 252 250 249 250 253 254 253 252 253 253 251 251 256 263 268 269 267 266 266 268 272 276 279 280 278 274 269 265 260 257 253 251 250 250 251 253 256 258 261 263 265 265 263 258 252 248 249 255 260 263 266 268 270 272 274 275 275 276 277 279 280 282 283 284 285 285 286 287 287 288 288 289 290 291 292 293 293 293 293
260 258 255 255 256 253 251 251 251 249 247 247 246 245 245 249 256 263 267 269 271 271 270 269 269 271 276 280 281 279 276 272 268 264 261 258 255 254 254 255 258 261 265 268 271 274 274 271 267 261 256 255 258 262 264 266 268 270 271 272 273 274 275 276 278 279 281 282 283 284 285 285 286 287 288 289 289 290 290 291 291 291 291 290 290
258 259 254 252 256 256 253 251 252 252 248 245 243 244 247 254 262 264 263 261 263 267 269 268 268 270 274 277 277 276 274 271 269 266 263 262 261 261 262 264 267 269 272 275 277 278 278 274 269 265 263 263 264 265 266 267 269 270 272 273 274 275 277 278 279 281 283 284 285 286 287 288 289 290 290 290 289 289 289 289 288 288 287 287 287
255 254 246 245 253 262 264 258 253 252 253 254 256 258 259 259 258 256 254 254 258 263 266 267 268 270 272 274 275 276 277 276 274 272 269 268 267 267 267 268 270 272 274 277 278 278 277 274 270 268 267 266 266 267 268 270 272 273 274 275 277 278 280 282 284 286 288 289 289 289 290 290 290 289 288 287 287 287 287 286 285 285 284 284 284
Height
3126 3128 3129 3131 3132 3134 3137 3138 3139 3141 3142 3144 3146 3147 3149 3151 3152 3154 3155 3156 3157 3157 3158 3158 3158 3158 3159 3159 3159 3159 3160 3160 3159 3159 3159 3159 3159 3159 3158 3157 3156 3155 3155 3154 3153 3152 3151 3150 3149 3148 3147 3145 3144 3142 3142 3141 3140 3139 3137 3136 3135 3133 3132 3130 3128 3126 3123 3121 3119 3117 3115 3113 3111 3109 3107 3104 3101 3099 3096 3093 3090 3087 3084 3081 3078
3125 3126 3128 3129 3131 3133 3135 3136 3138 3139 3141 3142 3144 3145 3147 3149 3151 3153 3154 3155 3156 3156 3156 3156 3157 3157 3157 3158 3158 3158 3158 3158 3158 3158 3158 3158 3158 3158 3157 3156 3155 3154 3154 3153 3153 3152 3151 3150 3148 3147 3146 3144 3143 3142 3141 3140 3139 3138 3137 3135 3134 3133 3131 3129 3127 3125 3122 3120 3119 3117 3115 3113 3112 3110 3107 3104 3101 3099 3096 3093 3090 3087 3084 3081 3078
3123 3124 3126 3128 3130 3131 3133 3135 3136 3138 3139 3141 3142 3144 3146 3148 3150 3151 3152 3153 3154 3155 3155 3155 3155 3156 3156 3157 3157 3157 3157 3157 3157 3157 3157 3157 3157 3156 3156 3155 3154 3153 3153 3153 3152 3151 3150 3149 3148 3146 3145 3144 3143 3142 3141 3140 3139 3138 3136 3135 3134 3132 3130 3128 3126 3124 3122 3120 3119 3117 3115 3114 3112 3110 3107 3104 3101 3099 3096 3093 3090 3087 3084 3082 3079
3121 3122 3124 3126 3128 3129 3131 3133 3135 3136 3138 3139 3141 3142 3144 3146 3148 3149 3150 3152 3153 3153 3153 3154 3154 3155 3155 3155 3156 3155 3155 3156 3156 3156 3156 3155 3155 3155 3154 3154 3153 3152 3152 3152 3151 3150 3149 3148 3147 3146 3145 3143 3142 3141 3140 3139 3138 3137 3136 3135 3133 3132 3130 3128 3126 3124 3122 3121 3119 3117 3116 3114 3112 3110 3106 3103 3101 3099 3096 3093 3090 3087 3085 3082 3080
3119 3120 3122 3125 3126 3127 3129 3131 3133 3134 3136 3138 3139 3141 3143 3144 3146 3147 3149 3150 3151 3151 3152 3152 3153 3153 3154 3154 3154 3154 3154 3154 3154 3154 3154 3154 3154 3153 3153 3153 3152 3151 3151 3151 3150 3149 3148 3147 3146 3145 3144 3143 3142 3141 3140 3139 3138 3137 3136 3134 3133 3131 3130 3128 3126 3124 3122 3121 3119 3118 3116 3114 3112 3109 3106 3103 3101 3099 3096 3094 3091 3088 3086 3083 3081
3118 3119 3121 3124 3125 3125 3127 3129 3131 3133 3134 3136 3138 3140 3141 3143 3144 3146 3147 3148 3149 3150 3150 3150 3151 3152 3152 3152 3152 3152 3153 3153 3153 3153 3153 3152 3152 3152 3152 3151 3151 3150 3150 3149 3149 3148 3147 3146 3145 3144 3143 3142 3141 3140 3139 3138 3137 3136 3135 3134 3132 3131 3129 3127 3125 3124 3122 3121 3119 3118 3116 3114 3112 3110 3107 3104 3102 3100 3097 3094 3092 3090 3087 3084 3082
3117 3119 3121 3122 3122 3123 3125 3127 3129 3131 3133 3135 3136 3138 3139 3141 3142 3144 3145 3146 3147 3148 3148 3149 3149 3150 3150 3151 3151 3151 3151 3151 3152 3151 3151 3151 3151 3151 3151 3150 3150 3149 3148 3148 3147 3146 3146 3145 3144 3143 3142 3141 3140 3140 3139 3138 3137 3136 3135 3133 3132 3130 3129 3127 3125 3124 3123 3121 3120 3118 3116 3114 3112 3109 3106 3104 3102 3100 3098 3096 3093 3091 3088 3085 3083
3116 3118 3120 3121 3121 3123 3125 3127 3128 3130 3132 3133 3134 3136 3137 3139 3140 3142 3143 3144 3145 3146 3146 3147 3147 3148 3149 3149 3149 3150 3150 3150 3150 3150 3150 3150 3150 3150 3149 3149 3148 3148 3147 3146 3146 3145 3145 3144 3143 3142 3142 3141 3140 3139 3138 3137 3136 3135 3134 3133 3131 3130 3128 3126 3125 3124 3123 3122 3120 3119 3116 3114 3112 3110 3107 3104 3103 3101 3099 3097 3094 3091 3088 3086 3083
3115 3116 3118 3120 3121 3123 3125 3126 3127 3128 3130 3131 3132 3134 3135 3137 3138 3140 3141 3142 3143 3144 3144 3145 3145 3146 3147 3147 3148 3148 3148 3148 3148 3148 3148 3148 3148 3148 3148 3148 3147 3146 3146 3145 3144 3144 3143 3143 3142 3141 3141 3140 3139 3138 3137 3136 3135 3134 3133 3132 3131 3129 3128 3126 3125 3124 3123 3122 3121 3119 3117 3115 3113 3111 3108 3106 3104 3102 3099 3097 3094 3092 3089 3087 3084
3114 3114 3116 3118 3119 3121 3122 3123 3124 3126 3128 3129 3130 3132 3133 3135 3136 3138 3139 3140 3141 3142 3143 3143 3144 3144 3145 3146 3146 3146 3146 3146 3146 3147 3147 3146 3146 3146 3146 3146 3145 3145 3144 3144 3143 3143 3142 3141 3141 3140 3140 3139 3138 3137 3136 3135 3134 3133 3132 3131 3130 3129 3127 3126 3125 3124 3123 3122 3121 3119 3117 3115 3113 3111 3109 3106 3104 3102 3100 3098 3095 3093 3091 3088 3086
3112 3112 3114 3115 3116 3118 3119 3121 3122 3124 3125 3127 3128 3130 3131 3133 3134 3136 3137 3138 3139 3140 3141 3141 3142 3142 3143 3144 3144 3144 3144 3144 3144 3145 3145 3145 3145 3145 3144 3144 3144 3143 3143 3142 3142 3141 3141 3140 3140 3139 3139 3138 3137 3136 3135 3135 3134 3133 3132 3131 3130 3128 3127 3126 3125 3124 3123 3122 3121 3119 3117 3115 3113 3111 3109 3106 3104 3102 3100 3098 3095 3093 3091 3089 3086
3110 3111 3111 3113 3114 3116 3117 3118 3119 3121 3123 3124 3126 3128 3129 3131 3132 3134 3135 3136 3137 3138 3138 3139 3140 3140 3141 3142 3142 3142 3142 3142 3142 3143 3143 3143 3143 3143 3143 3142 3142 3142 3141 3141 3140 3140 3139 3139 3138 3138 3137 3137 3136 3135 3134 3134 3133 3132 3131 3130 3129 3128 3127 3125 3124 3123 3123 3122 3120 3119 3116 3114 3112 3111 3109 3107 3104 3103 3100 3098 3096 3094 3091 3088 3086
3109 3109 3110 3110 3112 3113 3115 3116 3117 3119 3120 3122 3124 3125 3127 3128 3129 3130 3132 3133 3134 3135 3136 3137 3138 3138 3139 3139 3140 3140 3140 3140 3140 3140 3140 3141 3141 3141 3141 3141 3140 3140 3140 3139 3139 3138 3138 3137 3137 3136 3136 3135 3135 3134 3133 3133 3132 3132 3131 3130 3128 3127 3126 3125 3124 3123 3123 3122 3120 3118 3116 3114 3112 3111 3109 3107 3104 3103 3101 3099 3097 3094 3092 3089 3087
3106 3107 3108 3109 3110 3111 3113 3114 3116 3117 3118 3120 3121 3122 3124 3125 3126 3127 3129 3130 3132 3133 3134 3135 3135 3136 3136 3137 3137 3138 3138 3138 3138 3138 3138 3138 3139 3139 3139 3139 3138 3138 3138 3138 3137 3137 3136 3136 3135 3135 3134 3134 3133 3133 3132 3132 3131 3131 3130 3129 3128 3127 3126 3125 3124 3123 3122 3121 3120 3118 3116 3114 3112 3110 3109 3107 3105 3103 3102 3100 3098 3095 3092 3090 3088
3103 3105 3106 3107 3108 3109 3111 3112 3114 3115 3116 3117 3118 3119 3121 3122 3123 3125 3126 3128 3129 3130 3131 3132 3132 3133 3134 3134 3135 3135 3135 3135 3136 3136 3136 3136 3137 3137 3137 3137 3136 3136 3136 3136 3136 3135 3134 3134 3134 3133 3133 3132 3132 3131 3131 3130 3130 3129 3129 3128 3127 3126 3125 3124 3123 3123 3122 3121 3120 3118 3116 3114 3112 3110 3109 3107 3105 3104 3102 3100 3098 3095 3092 3090 3089
3099 3101 3103 3104 3106 3108 3109 3110 3112 3113 3114 3115 3116 3117 3118 3119 3121 3122 3124 3125 3126 3127 3128 3129 3129 3130 3131 3131 3132 3132 3133 3133 3133 3133 3134 3134 3134 3134 3134 3134 3134 3134 3134 3134 3134 3133 3133 3132 3132 3132 3131 3131 3130 3130 3129 3129 3128 3128 3127 3127 3126 3125 3124 3123 3123 3122 3121 3121 3120 3118 3116 3114 3112 3110 3109 3107 3106 3104 3102 3100 3099 3096 3094 3092 3091
3096 3098 3100 3102 3104 3106 3107 3108 3109 3110 3111 3112 3113 3114 3116 3117 3119 3120 3121 3122 3124 3125 3126 3126 3127 3127 3128 3128 3129 3129 3130 3130 3131 3131 3131 3131 3132 3132 3132 3132 3132 3132 3132 3132 3132 3132 3131 3131 3130 3130 3130 3129 3128 3128 3128 3127 3127 3126 3126 3126 3125 3125 3124 3123 3122 3121 3121 3120 3119 3117 3116 3114 3112 3110 3109 3108 3106 3105 3103 3101 3100 3098 3096 3094 3092
3093 3095 3097 3099 3101 3103 3104 3105 3107 3108 3109 3109 3110 3111 3113 3114 3116 3117 3118 3119 3121 3122 3123 3123 3124 3124 3125 3125 3126 3127 3127 3128 3128 3128 3129 3129 3129 3129 3130 3130 3130 3130 3130 3130 3130 3130 3129 3129 3129 3128 3128 3127 3127 3126 3126 3126 3126 3125 3125 3124 3124 3124 3123 3122 3121 3121 3120 3120 3119 3117 3115 3114 3112 3111 3109 3108 3107 3106 3104 3103 3101 3100 3097 3095 3092
3091 3093 3095 3096 3098 3100 3101 3102 3104 3104 3105 3106 3107 3108 3110 3111 3113 3114 3115 3116 3118 3119 3120 3120 3120 3121 3122 3122 3123 3124 3124 3125 3125 3125 3126 3126 3127 3127 3127 3128 3128 3128 3128 3128 3128 3128 3128 3127 3127 3127 3126 3125 3125 3125 3125 3124 3124 3124 3123 3123 3123 3122 3122 3121 3120 3120 3120 3119 3118 3117 3115 3113 3112 3111 3109 3108 3107 3106 3105 3103 3102 3100 3098 3096 3093
3089 3091 3092 3094 3096 3098 3099 3099 3100 3100 3101 3103 3104 3105 3106 3108 3109 3111 3112 3114 3115 3116 3116 3117 3117 3118 3119 3119 3120 3121 3121 3122 3122 3123 3123 3123 3124 3124 3125 3125 3126 3126 3126 3126 3126 3126 3126 3126 3125 3125 3124 3124 3123 3123 3123 3123 3122 3122 3122 3121 3121 3121 3121 3120 3120 3119 3119 3119 3118 3116 3115 3113 3112 3110 3109 3108 3107 3106 3105 3104 3102 3100 3098 3096 3094
3088 3090 3090 3091 3092 3093 3094 3096 3096 3096 3097 3100 3101 3102 3103 3105 3107 3108 3109 3111 3112 3112 3113 3114 3114 3115 3116 3116 3117 3118 3119 3119 3119 3120 3120 3121 3121 3122 3122 3123 3123 3124 3124 3124 3125 3124 3124 3124 3123 3123 3122 3122 3122 3121 3121 3121 3121 3120 3120 3120 3120 3120 3119 3119 3119 3118 3118 3118 3117 3116 3114 3113 3111 3110 3109 3108 3107 3106 3105 3103 3102 3100 3098 3096 3094
3086 3086 3086 3087 3088 3089 3090 3091 3093 3094 3096 3097 3098 3099 3100 3102 3104 3105 3107 3108 3108 3109 3110 3111 3112 3112 3113 3113 3114 3115 3116 3116 3117 3117 3117 3118 3118 3119 3120 3120 3121 3121 3122 3122 3122 3122 3122 3122 3121 3121 3120 3120 3120 3120 3120 3119 3119 3119 3118 3118 3118 3118 3118 3118 3117 3117 3117 3117 3116 3115 3113 3112 3111 3110 3109 3107 3106 3105 3104 3103 3101 3100 3098 3096 3094
3082 3082 3083 3083 3084 3085 3086 3088 3089 3091 3093 3094 3095 3096 3098 3100 3101 3103 3104 3104 3105 3106 3107 3108 3109 3109 3110 3111 3112 3113 3113 3113 3113 3114 3114 3115 3116 3116 3117 3118 3118 3119 3119 3120 3120 3120 3120 3120 3120 3119 3118 3118 3118 3118 3118 3118 3117 3117 3116 3116 3116 3116 3116 3116 3116 3116 3116 3115 3115 3114 3113 3111 3110 3109 3108 3107 3106 3105 3103 3102 3100 3099 3097 3096 3094
3079 3079 3079 3080 3081 3082 3083 3084 3086 3087 3089 3091 3092 3093 3095 3097 3099 3100 3101 3102 3102 3103 3104 3106 3106 3106 3107 3108 3109 3110 3110 3110 3110 3111 3112 3113 3113 3114 3114 3115 3116 3116 3117 3117 3118 3118 3118 3118 3117 3117 3116 3116 3116 3116 3116 3116 3116 3115 3115 3115 3115 3115 3115 3115 3114 3114 3114 3114 3113 3112 3111 3111 3110 3109 3107 3106 3105 3104 3102 3101 3100 3098 3097 3095 3093
3076 3076 3076 3077 3078 3078 3079 3081 3083 3084 3085 3087 3089 3091 3092 3094 3095 3097 3098 3099 3099 3100 3101 3102 3103 3103 3103 3104 3105 3105 3105 3106 3106 3107 3109 3110 3111 3111 3112 3112 3113 3114 3114 3114 3115 3116 3116 3116 3115 3115 3114 3114 3114 3114 3114 3114 3114 3114 3113 3113 3113 3113 3113 3113 3113 3113 3113 3112 3112 3111 3110 3109 3109 3108 3107 3105 3104 3103 3101 3100 3098 3097 3095 3094 3092
3074 3074 3074 3074 3074 3075 3076 3078 3080 3081 3082 3085 3087 3088 3090 3091 3093 3094 3095 3096 3096 3096 3096 3097 3098 3098 3098 3099 3100 3100 3101 3102 3102 3103 3105 3107 3108 3109 3109 3110 3110 3111 3111 3112 3113 3113 3114 3113 3113 3113 3112 3112 3112 3112 3112 3112 3112 3112 3112 3111 3111 3111 3111 3111 3111 3111 3111 3111 3110 3110 3109 3108 3107 3106 3106 3105 3103 3102 3100 3099 3097 3096 3094 3092 3091
3071 3071 3071 3072 3072 3073 3074 3075 3077 3079 3081 3083 3084 3086 3087 3089 3090 3091 3092 3093 3093 3093 3093 3093 3093 3093 3093 3094 3095 3095 3097 3098 3099 3100 3102 3104 3105 3106 3106 3107 3107 3108 3108 3109 3110 3111 3111 3111 3111 3110 3110 3110 3110 3110 3110 3110 3110 3110 3110 3110 3110 3110 3110 3109 3109 3109 3109 3109 3109 3108 3107 3107 3106 3105 3104 3103 3102 3101 3099 3098 3096 3095 3093 3092 3090
3069 3069 3069 3069 3070 3070 3072 3074 3076 3078 3079 3081 3082 3084 3085 3087 3088 3088 3089 3089 3089 3089 3089 3090 3089 3089 3089 3090 3091 3091 3093 3095 3096 3098 3100 3101 3102 3103 3103 3104 3104 3105 3106 3106 3107 3108 3109 3109 3109 3108 3108 3108 3108 3108 3108 3108 3108 3108 3108 3108 3108 3108 3108 3108 3108 3107 3107 3107 3107 3106 3106 3105 3104 3104 3103 3102 3101 3100 3099 3097 3096 3094 3092 3091 3089
3066 3066 3067 3068 3068 3069 3071 3073 3075 3076 3077 3079 3080 3081 3083 3084 3085 3085 3085 3085 3085 3085 3085 3085 3085 3085 3085 3086 3087 3089 3090 3092 3094 3095 3097 3098 3099 3100 3100 3101 3101 3102 3103 3104 3105 3105 3106 3106 3106 3106 3106 3106 3106 3106 3106 3105 3106 3106 3106 3106 3106 3106 3106 3106 3106 3105 3105 3105 3105 3104 3104 3103 3102 3102 3101 3100 3099 3098 3097 3096 3095 3093 3092 3090 3088
3065 3065 3065 3066 3067 3068 3070 3072 3073 3075 3076 3077 3078 3079 3080 3081 3081 3081 3082 3082 3082 3081 3081 3081 3081 3082 3082 3083 3084 3085 3086 3087 3089 3091 3092 3094 3095 3096 3097 3097 3098 3099 3100 3101 3102 3102 3103 3103 3104 3104 3104 3104 3103 3103 3103 3103 3103 3103 3104 3104 3104 3104 3104 3104 3103 3103 3103 3103 3103 3102 3101 3101 3100 3100 3099 3098 3097 3096 3095 3094 3093 3092 3090 3089 3087
3063 3064 3064 3065 3066 3068 3069 3070 3072 3073 3074 3075 3076 3077 3078 3078 3078 3078 3078 3079 3079 3078 3078 3078 3079 3079 3079 3080 3081 3081 3082 3083 3085 3087 3089 3090 3091 3092 3093 3094 3095 3096 3097 3098 3099 3100 3100 3100 3101 3101 3101 3101 3101 3101 3101 3101 3101 3101 3101 3101 3101 3101 3101 3101 3101 3101 3101 3100 3100 3100 3099 3099 3098 3098 3097 3096 3095 3094 3093 3092 3091 3090 3089 3087 3086
3062 3063 3063 3064 3065 3066 3068 3069 3070 3071 3072 3074 3075 3075 3076 3076 3076 3076 3076 3076 3076 3075 3075 3076 3076 3076 3077 3077 3078 3080 3081 3082 3084 3085 3087 3088 3089 3090 3090 3091 3092 3093 3094 3095 3096 3097 3097 3097 3098 3098 3099 3099 3098 3098 3098 3098 3098 3099 3099 3099 3099 3099 3099 3099 3099 3099 3098 3098 3098 3097 3097 3097 3096 3095 3095 3094 3093 3092 3091 3090 3089 3088 3086 3085 3084
3062 3062 3063 3063 3064 3065 3066 3067 3068 3069 3071 3072 3072 3073 3073 3073 3073 3073 3073 3073 3072 3072 3073 3073 3073 3073 3074 3075 3077 3078 3080 3081 3082 3084 3085 3086 3086 3087 3087 3088 3089 3090 3091 3092 3093 3094 3094 3094 3094 3095 3095 3095 3095 3095 3095 3095 3095 3096 3096 3096 3096 3096 3096 3096 3097 3096 3096 3096 3095 3095 3095 3094 3094 3093 3092 3091 3090 3090 3088 3087 3086 3085 3084 3083 3081
3061 3062 3062 3063 3063 3064 3065 3066 3067 3068 3068 3069 3069 3070 3070 3070 3070 3070 3070 3069 3069 3069 3070 3071 3071 3072 3073 3074 3075 3076 3078 3079 3080 3082 3083 3083 3084 3084 3085 3085 3086 3087 3088 3089 3090 3091 3091 3091 3091 3091 3092 3092 3092 3092 3092 3092 3092 3093 3093 3093 3093 3093 3093 3094 3094 3094 3093 3093 3093 3092 3092 3091 3091 3090 3090 3089 3088 3087 3086 3085 3084 3082 3081 3080 3079
3060 3061 3061 3062 3062 3063 3064 3064 3065 3065 3066 3066 3067 3067 3067 3067 3068 3068 3067 3067 3067 3067 3067 3068 3069 3070 3071 3072 3072 3073 3074 3075 3077 3079 3080 3081 3081 3081 3082 3082 3084 3085 3086 3087 3087 3088 3088 3088 3088 3088 3088 3089 3089 3089 3089 3090 3090 3090 3090 3090 3090 3090 3090 3091 3091 3091 3091 3090 3090 3089 3089 3088 3088 3087 3087 3086 3085 3084 3083 3082 3081 3080 3078 3077 3076
3058 3058 3059 3060 3061 3061 3061 3062 3063 3063 3064 3064 3064 3065 3065 3065 3065 3065 3065 3065 3064 3065 3065 3066 3067 3068 3069 3069 3070 3071 3071 3072 3073 3075 3076 3077 3078 3078 3079 3080 3081 3082 3083 3083 3084 3084 3085 3085 3085 3085 3085 3085 3086 3086 3086 3086 3087 3087 3087 3087 3087 3087 3087 3087 3087 3087 3087 3087 3087 3086 3086 3085 3085 3084 3084 3083 3082 3081 3080 3079 3078 3077 3075 3074 3073
3055 3055 3056 3057 3058 3058 3059 3060 3060 3061 3061 3062 3062 3063 3063 3063 3063 3063 3062 3062 3062 3063 3063 3064 3065 3066 3066 3067 3067 3067 3068 3069 3070 3071 3072 3073 3073 3074 3075 3076 3078 3079 3080 3080 3080 3081 3081 3081 3081 3081 3082 3082 3082 3082 3082 3083 3083 3083 3084 3084 3084 3084 3084 3084 3084 3084 3084 3084 3083 3083 3082 3082 3081 3081 3080 3079 3079 3077 3076 3075 3074 3073 3072 3071 3070
3053 3053 3054 3055 3056 3056 3057 3057 3058 3059 3059 3059 3060 3060 3060 3060 3060 3060 3060 3060 3061 3061 3061 3062 3063 3063 3064 3064 3064 3064 3065 3066 3066 3067 3067 3068 3069 3070 3071 3073 3075 3076 3076 3077 3077 3077 3078 3078 3078 3078 3078 3078 3078 3079 3079 3079 3080 3080 3080 3080 3081 3081 3081 3081 3081 3081 3081 3080 3080 3080 3079 3079 3078 3077 3077 3076 3075 3074 3073 3072 3071 3070 3068 3067 3066
3051 3052 3052 3053 3053 3054 3055 3055 3056 3056 3057 3057 3057 3058 3058 3058 3058 3058 3058 3058 3059 3059 3059 3060 3060 3061 3061 3061 3061 3062 3062 3063 3063 3063 3063 3064 3066 3067 3068 3069 3071 3073 3073 3074 3074 3074 3074 3074 3074 3074 3074 3074 3075 3075 3075 3075 3076 3076 3076 3077 3077 3077 3077 3077 3077 3077 3077 3077 3077 3076 3076 3075 3074 3074 3073 3072 3071 3070 3069 3068 3067 3066 3065 3063 3062
3050 3050 3050 3051 3051 3052 3053 3053 3054 3054 3054 3055 3055 3055 3056 3056 3056 3056 3056 3056 3056 3057 3057 3057 3057 3057 3058 3058 3058 3058 3059 3059 3060 3060 3060 3061 3062 3063 3065 3066 3068 3069 3070 3070 3070 3070 3070 3070 3070 3070 3070 3071 3071 3072 3072 3072 3072 3072 3073 3073 3073 3073 3074 3074 3074 3074 3074 3073 3073 3073 3072 3072 3071 3070 3070 3069 3068 3067 3065 3064 3063 3062 3061 3059 3058
3048 3048 3049 3049 3049 3050 3050 3051 3051 3051 3052 3052 3053 3053 3054 3053 3054 3054 3054 3054 3055 3055 3055 3055 3054 3054 3054 3055 3055 3055 3055 3055 3056 3056 3056 3057 3057 3058 3060 3062 3063 3064 3064 3064 3064 3065 3065 3065 3065 3066 3066 3067 3068 3068 3069 3069 3069 3069 3070 3070 3070 3070 3071 3071 3071 3070 3070 3070 3070 3069 3069 3068 3067 3067 3066 3065 3064 3063 3061 3060 3059 3058 3056 3055 3053
3046 3046 3047 3047 3048 3048 3048 3048 3049 3049 3049 3050 3050 3051 3051 3051 3051 3051 3052 3052 3053 3053 3053 3053 3052 3052 3052 3052 3052 3052 3052 3052 3052 3051 3052 3053 3053 3053 3054 3056 3057 3058 3059 3060 3060 3061 3061 3061 3061 3062 3062 3064 3065 3065 3066 3066 3067 3067 3067 3067 3067 3067 3068 3067 3067 3067 3066 3066 3066 3066 3065 3064 3063 3063 3062 3061 3060 3058 3057 3056 3054 3053 3052 3050 3049
3044 3044 3045 3045 3046 3046 3046 3046 3046 3046 3047 3047 3047 3048 3048 3048 3048 3049 3049 3050 3050 3050 3051 3050 3050 3050 3049 3049 3049 3049 3049 3049 3049 3048 3049 3050 3050 3050 3050 3051 3052 3053 3054 3055 3055 3056 3057 3057 3057 3058 3059 3061 3062 3062 3063 3064 3064 3064 3064 3064 3064 3065 3065 3065 3064 3064 3063 3063 3062 3062 3061 3061 3060 3059 3058 3057 3056 3054 3052 3051 3050 3049 3047 3046 3044
3041 3041 3042 3042 3043 3043 3044 3044 3044 3044 3044 3044 3044 3045 3045 3045 3045 3046 3046 3047 3047 3047 3047 3047 3047 3047 3047 3047 3047 3047 3046 3046 3046 3045 3046 3046 3047 3048 3048 3049 3050 3051 3051 3051 3051 3051 3052 3053 3054 3055 3056 3057 3058 3058 3059 3060 3060 3060 3060 3061 3061 3062 3062 3062 3061 3061 3060 3059 3059 3058 3057 3057 3056 3055 3053 3052 3051 3049 3048 3047 3045 3044 3043 3041 3040
3037 3038 3038 3039 3039 3040 3040 3040 3041 3041 3041 3041 3041 3041 3042 3042 3042 3043 3043 3043 3044 3044 3044 3044 3044 3044 3044 3044 3044 3044 3044 3043 3043 3043 3043 3043 3044 3044 3045 3046 3047 3047 3047 3047 3048 3049 3049 3050 3051 3052 3052 3053 3053 3054 3055 3055 3056 3057 3057 3058 3059 3059 3059 3059 3058 3057 3056 3055 3055 3054 3053 3052 3051 3050 3049 3048 3046 3044 3043 3042 3041 3039 3038 3037 3035
3033 3034 3034 3035 3035 3036 3036 3036 3037 3037 3037 3038 3038 3038 3039 3039 3040 3040 3040 3040 3041 3041 3041 3041 3041 3041 3041 3041 3041 3041 3040 3040 3040 3040 3040 3040 3041 3042 3042 3043 3043 3043 3044 3045 3046 3047 3047 3047 3048 3048 3049 3049 3050 3051 3052 3052 3053 3054 3054 3055 3055 3055 3055 3054 3054 3053 3052 3051 3050 3049 3048 3047 3046 3045 3045 3043 3042 3040 3038 3037 3036 3034 3033 3032 3030
3030 3031 3031 3031 3032 3032 3032 3033 3033 3033 3034 3035 3035 3035 3036 3036 3036 3037 3037 3037 3037 3037 3037 3038 3038 3038 3038 3038 3038 3038 3037 3037 3037 3037 3038 3038 3038 3039 3039 3040 3040 3040 3041 3042 3042 3043 3043 3043 3044 3044 3044 3045 3046 3047 3048 3049 3050 3051 3051 3050 3050 3051 3051 3050 3050 3049 3048 3047 3046 3045 3044 3043 3041 3041 3040 3038 3037 3035 3034 3032 3031 3030 3028 3027 3025
3027 3027 3028 3028 3028 3029 3029 3029 3030 3030 3030 3031 3031 3032 3032 3033 3033 3034 3034 3034 3034 3034 3034 3035 3035 3035 3035 3035 3035 3035 3035 3034 3034 3034 3034 3035 3035 3036 3036 3036 3037 3037 3038 3039 3039 3040 3040 3040 3039 3039 3040 3041 3042 3043 3044 3045 3046 3047 3047 3046 3046 3047 3047 3046 3045 3044 3043 3042 3041 3040 3039 3038 3037 3036 3034 3033 3032 3030 3029 3027 3026 3024 3023 3022 3020
3024 3024 3024 3025 3025 3026 3026 3026 3027 3027 3027 3027 3027 3028 3028 3029 3030 3031 3031 3031 3031 3031 3031 3031 3032 3032 3032 3032 3032 3031 3031 3031 3031 3031 3031 3031 3032 3032 3033 3033 3034 3035 3036 3037 3037 3036 3036 3035 3035 3036 3037 3038 3039 3040 3041 3042 3043 3043 3043 3043 3043 3043 3042 3041 3040 3039 3038 3037 3036 3035 3034 3033 3032 3030 3029 3028 3026 3025 3024 3022 3021 3020 3018 3017 3015
3021 3021 3022 3022 3022 3023 3023 3023 3024 3024 3024 3024 3024 3025 3025 3026 3027 3027 3027 3027 3028 3028 3028 3028 3028 3028 3028 3028 3028 3028 3028 3028 3028 3028 3028 3028 3029 3030 3030 3031 3032 3033 3033 3033 3032 3032 3032 3032 3033 3034 3035 3036 3037 3038 3039 3039 3039 3039 3039 3039 3039 3038 3037 3037 3036 3035 3033 3032 3031 3030 3029 3027 3026 3025 3024 3023 3021 3020 3019 3018 3016 3015 3013 3011 3010
3018 3018 3019 3020 3020 3020 3020 3020 3020 3021 3022 3022 3022 3022 3023 3023 3023 3023 3024 3024 3024 3024 3025 3025 3025 3025 3025 3025 3025 3025 3025 3025 3025 3026 3026 3026 3027 3027 3028 3028 3029 3029 3029 3029 3029 3029 3029 3030 3031 3032 3033 3034 3035 3035 3035 3036 3036 3036 3035 3035 3034 3034 3033 3032 3031 3030 3028 3027 3026 3025 3024 3022 3021 3020 3019 3018 3016 3015 3014 3012 3010 3009 3007 3005 3004